www.pogodaiklimat.ru

Погода и климат >> Архив погоды >> Китай >> Хунань >> Чэньчжоу


ПОГОДА в Чэньчжоу

  • Прогноз погоды в Чэньчжоу
  • Монитор погоды в Чэньчжоу

АРХИВ ПОГОДЫ в Чэньчжоу

Время (UTC), дата Ветер
(напр.,м/с)
 
Видим.   Явления Облачность Т
(С)
Тd
(С)
f
(%)
Тe
(С)
Тes
(С)
Комфортность P
(гПа)
Po
(гПа)
Тmin
(С)
Tmax
(С)
R
(мм)
R24
(мм)
S
(см)
12 11.02 С 2 600 м морось {туман} 10/10 200 м
[]
+0.6 +0.5 99 -3 -3 1030.4 983.9
15 11.02 В 1 500 м туман н/о +0.8 +0.7 99 -1 -1 1030.3 1006.8
18 11.02 штиль 0 500 м туман ?/? +0.9 +0.8 99 -1 -1 1029.2 982.9 +0.9
21 11.02 С 1 400 м туман ?/? +1.2 +1.1 99 -1 -1 1027.4 1004.0
00 12.02 С 1 400 м туман 10/10 200 м
[]
+1.5 +1.4 99 -1 -1 1028.2 982.0
03 12.02 З 1 800 м в посл. час туман 10/10 200 м
[]
+3.1 +3.0 99 +1 +1 1028.3 1005.0
06 12.02 СВ 3 30 км 9/9 1500 м
[]
+8.6 +8.5 99 +6 +7 1025.5 980.0 +0.1
09 12.02 С 7 14 км 10/10 1500 м
[]
+4.0 +3.6 97 -2 -2 1027.4 1004.2
12 12.02 С 3 500 м морось {туман} 10/10 600 м
[]
+3.1 +3.0 99 -1 -1 1029.8 983.7
15 12.02 С 5 600 м морось н/о +2.7 +2.6 99 -3 -3 1031.9 1008.5
18 12.02 С 5 700 м морось {туман} ?/? +2.5 +2.4 99 -3 -3 1030.1 984.5 +9.0 0.6
21 12.02 С 3 500 м морось н/о +2.3 +2.2 99 -2 -2 1029.5 1006.1
00 13.02 С 2 600 м морось 10/10 600 м
[]
+2.4 +2.3 99 -1 -1 1029.7 983.7 0.6
03 13.02 С 3 600 м морось {туман} 10/10 600 м
[]
+2.8 +2.7 99 -2 -2 1029.6 1006.3
06 13.02 С 3 1600 м слаб. морось 10/10 600 м
[]
+3.4 +3.3 99 -1 -1 1026.4 980.6 +2.3 0.9
09 13.02 С 3 700 м сильн. морось {туман} 10/10 600 м
[]
+3.1 +3.0 99 -1 -1 1026.3 1003.1
12 13.02 С 3 600 м морось {туман} 10/10 300 м
[]
+2.8 +2.7 99 -2 -2 1028.1 982.1 0.2
15 13.02 С 3 600 м морось н/о +2.6 +2.5 99 -2 -2 1028.8 1005.5
18 13.02 С 3 600 м туман ?/? +2.4 +2.3 99 -2 -2 1027.4 981.5 +3.5 0.5
21 13.02 С 3 500 м морось н/о +2.5 +2.4 99 -2 -2 1026.4 1003.1
00 14.02 С 3 600 м морось 10/10 300 м
[]
+2.4 +2.3 99 -2 -2 1028.3 982.3 0.5
03 14.02 В 1 900 м слаб. морось 10/10 300 м
[]
+3.3 +3.2 99 +2 +2 1027.7 1004.5
06 14.02 С 4 3100 м дымка 10/10 1000 м
[]
+3.7 +3.6 99 -1 -1 1025.6 979.8 +2.3 0.7
09 14.02 С 2 8000 м в посл. час морось 10/10 1000 м
[]
+3.9 +3.8 99 +1 +1 1024.5 1001.4
12 14.02 С 4 500 м сильн. морось {туман} 10/10 600 м
[]
+3.2 +3.1 99 -2 -2 1026.6 980.7
15 14.02 С 5 500 м морось н/о +2.9 +2.8 99 -3 -3 1027.3 1004.0
18 14.02 С 4 500 м морось {туман} ?/? +2.7 +2.6 99 -2 -2 1027.3 981.5 +4.0
21 14.02 С 3 500 м морось н/о +2.4 +2.3 99 -2 -2 1026.2 1002.9
00 15.02 С 2 500 м туман 10/10 600 м
[]
+2.3 +2.2 99 -1 -1 1027.2 981.3 0.4
03 15.02 С 3 1400 м в посл. час морось 10/10 300 м
[]
+3.0 +2.9 99 -1 -1 1028.2 1004.9
06 15.02 С 3 1100 м в посл. час морось 10/10 300 м
[]
+3.2 +3.1 99 -1 -1 1025.7 979.9 +2.3 0.0
09 15.02 С 4 14 км 10/10 1000 м
[]
+3.0 +2.9 99 -2 -2 1024.6 1001.4
12 15.02 С 4 600 м морось {туман} 10/10 300 м
[]
+2.7 +2.6 99 -2 -2 1025.4 979.5 0.0
15 15.02 С 3 500 м морось н/о +2.3 +2.2 99 -2 -2 1027.6 1004.3
18 15.02 С 3 600 м морось {дождь} ?/? +2.0 +1.9 99 -3 -3 1026.8 980.9 +3.3 2
21 15.02 С 4 600 м туман н/о +1.7 +1.6 99 -4 -4 1026.3 1003.0
00 16.02 С 3 500 м морось 10/10 300 м
[]
+1.7 +1.6 99 -3 -3 1027.4 981.4 2
03 16.02 С 3 1900 м слаб. морось 10/10 600 м
[]
+2.1 +2.0 99 -2 -2 1028.1 1004.8
06 16.02 С 4 2200 м слаб. морось 10/10 600 м
[]
+2.4 +2.3 99 -3 -3 1025.9 980.0 +1.6 0.3
09 16.02 С 4 1700 м слаб. морось 10/10 300 м
[]
+2.4 +2.3 99 -3 -3 1024.5 1001.3
12 16.02 С 4 600 м морось {дождь, туман} 10/10 200 м
[]
+2.4 +2.3 99 -3 -3 1025.3 979.4 0.9
15 16.02 С 3 700 м морось н/о +2.4 +2.3 99 -2 -2 1026.7 1003.4
18 16.02 С 4 600 м морось {туман} ?/? +2.2 +2.1 99 -3 -3 1025.7 979.8 +2.7 0.4
21 16.02 С 4 600 м слаб. дождь н/о +2.1 +2.0 99 -3 -3 1024.2 1000.9
00 17.02 С 3 600 м морось 10/10 300 м
[]
+2.3 +2.2 99 -2 -2 1026.1 980.2 0.4
03 17.02 С 4 2000 м слаб. морось 10/10 300 м
[]
+2.8 +2.7 99 -2 -2 1026.3 1003.1
06 17.02 С 3 800 м морось 10/10 300 м
[]
+2.9 +2.8 99 -1 -1 1023.7 977.9 +2.1 0.9
09 17.02 С 5 1100 м слаб. дождь 10/10 200 м
[]
+2.6 +2.5 99 -3 -3 1023.5 1000.3
12 17.02 С 4 900 м дождь 10/10 300 м
[]
+1.9 +1.8 99 -3 -3 1023.6 977.8 10
15 17.02 СЗ 2 700 м слаб. дождь н/о +1.7 +1.6 99 -2 -2 1023.2 999.9
18 17.02 С 3 500 м слаб. дождь {морось, туман} ?/? +1.6 +1.5 99 -3 -3 1020.5 974.8 +3.1 8
21 17.02 С 5 800 м морось н/о +1.0 +0.9 99 -5 -5 1019.2 996.0
00 18.02 Ю 1 1400 м сильн. дождь 10/10 200 м
[]
+1.1 +1.0 99 -1 -1 1021.1 975.3 16
03 18.02 ЮВ 3 600 м слаб. дождь {туман} 10/10 200 м
[]
+2.4 +2.3 99 -2 -2 1019.4 996.3
06 18.02 С 4 400 м слаб. дождь {морось} 10/10 200 м
[]
+1.7 +1.6 99 -4 -4 1020.4 974.6 +0.9 11
09 18.02 С 3 600 м туман 10/10 200 м
[]
+1.2 +1.1 99 -4 -4 1018.8 995.6

 

Местоположение метеостанции Чэньчжоу (Хунань, Китай): широта 25.80 долгота 113.03 высота над уровнем моря 185 м.

В архиве по умолчанию представлена погода в Чэньчжоу за последнюю неделю. Архивные данные за месяц целиком и за предыдущие месяцы, начиная с января 2011 года, Вы можете получить, выбрав интересующий диапазон дат из раскрывающегося списка и нажав кнопку "Ввод!".


*Определитесь, кто Вы:
робот инопланетянин человек

Внимание! Время в таблицах - всемирное. Для получения местного времени необходимо прибавить поправку, которая равна 8 ч.

Смотрите также архив погоды в соседних городах и на ближайших метеорологических станциях:

Погода в Шаогуане (Гуандун, Китай) (124 км)
Погода в Лиан Сиань (Гуандун, Китай) (131 км)
Погода в Линлине (Хунань, Китай) (150 км)
Погода в Намвьете (Хунань, Китай) (170 км)
Погода в Ганьчжоу (Цзяньси, Китай) (197 км)
Погода в Лиянпине (Гуандун, Китай) (216 км)
Погода в Фоанге (Гуандун, Китай) (221 км)
Погода в Шаояне (Хунань, Китай) (223 км)
Погода в Цзиане (Цзяньси, Китай) (242 км)
Погода в Ичуне (Хэйлунцзян, Китай) (260 км)

Пояснения к столбцам:

Ветер - указаны скорость ветра в м/с - средняя за 10 мин, порывы в срок и между сроками (в фигурных скобках) и направление, откуда дует ветер: С - северный, СВ - северо-восточный, В - восточный, ЮВ - юго-восточный, Ю - южный, ЮЗ - юго-западный, З - западный, СЗ - северо-западный.
Видимость - горизонтальная дальность видимости в метрах или километрах. При видимости от 1 до 10 км при отсутствии осадков обычно наблюдается дымка, при ухудшении видимости до 1 км и менее - туман. В сухую погоду видимость может ухудшаться дымом, пылью или мглою.
Явления - указаны атмосферные явления, наблюдавшиеся в срок или в последний час перед сроком; фигурными скобками обозначены явления, наблюдавшиеся между сроками (за 1-3 часа до срока); квадратными скобками обозначены град или гололедные отложения с указанием их диаметра в мм.
Облачность - указаны через наклонную черту общая и нижняя облачность в баллах и высота нижней границы облаков в метрах; квадратными скобками обозначены формы облаков: Ci - перистые, Cs - перисто-слоистые, Cc - перисто-кучевые, Ac - высококучевые, As - высокослоистые, Sc - слоисто-кучевые, Ns - слоисто-дождевые, Cu - кучевые, Cb - кучево-дождевые. Подробнее классификацию облаков см. в Атласе облаков (PDF).
T - Температура воздуха - температура, измеренная на высоте 2 м над землей.
Td - Температура точки росы - температура, при понижении до которой содержащийся в воздухе водяной пар достигнет насыщения.
f - Относительная влажность воздуха - влажноcть воздуха, измеренная на высоте 2 м над землей.
Te - Эффективная температура - температура, которую ощущает одетый по сезону человек в тени. Характеристика душности погоды. При расчете учитывается влияние влажности воздуха и скорости ветра на теплоощущения человека.
Tes - Эффективная температура на солнце - температура, которую ощущает человек, с поправкой на солнечный нагрев. Характеристика знойности погоды. Зависит от высоты солнца над горизонтом, облачности и скорости ветра. Ночью, в пасмурную погоду, а также при ветре 12 м/с и более поправка равна нулю.
P - Атмосферное давление - приведенное к уровню моря атмосферное давление.
Po - Атмосферное давление - измеренное на уровне метеостанции атмосферное давление.
Tmin - Минимальная температура - минимум температуры воздуха на высоте 2 м над землей.
Tmax - Максимальная температура - максимум температуры воздуха на высоте 2 м над землей.
R - Количество осадков - Количество выпавших осадков за период времени, мм. При наведении курсора мыши на число - период времени, за который выпало указанное количество осадков.
R24 - Количество осадков - Количество выпавших осадков за 24 часа, мм.
S - Снежный покров - Высота снежного покрова, см. При наведении курсора мыши на число - состояние снежного покрова и степень покрытия местности в баллах.